Regional Weather Roundup
Issued by NWS

Home | Current Version | Previous Version | Text Only | Print | Product List | Glossary On
Versions: 1 2 3 4 5 6 7 8 9 10 11 12 13 14 15 16 17 18 19 20 21 22 23 24 25 26 27 28 29 30 31 32 33 34 35 36 37 38 39 40 41 42 43 44 45 46 47 48 49 50
000
ASUS43 KDMX 240906
RWRIA

WEATHER ROUNDUP FOR IOWA
NATIONAL WEATHER SERVICE DES MOINES IA
400 AM CDT TUE APR 24 2018

NOTE: "FAIR" INDICATES FEW OR NO CLOUDS BELOW 12,000 FEET WITH NO
SIGNIFICANT WEATHER AND/OR OBSTRUCTIONS TO VISIBILITY.

* - THESE STATIONS ARE NOT NWS STATIONS...THUS NOT UNDER NWS
QUALITY CONTROL.  THEY ALSO DO NOT REPORT WEATHER SUCH
AS PRECIPITATION OR FOG.

IAZ001>003-012>014-020>022-031>034-043>046-241000-
   NORTHWEST IOWA

CITY           SKY/WX    TMP DP  RH WIND       PRES   REMARKS
CARROLL *      PTCLDY    43  39  87 NW3       30.13S
CHEROKEE *     CLOUDY    41  40  96 CALM      30.14F
DENISON *      CLEAR     43  39  87 CALM      30.15S
LE MARS *      CLOUDY    45  41  87 CALM      30.14F
ORANGE CITY *  CLOUDY    50  39  66 E3        30.13F
SHELDON *      CLOUDY    43  41  93 CALM      30.12F
SIOUX CITY     CLOUDY    48  41  76 CALM      30.13F
SPENCER        CLEAR     38  35  89 NW6       30.14S WCI  33
STORM LAKE *   PTCLDY    45  39  81 N7        30.14S
$$

IAZ055>058-069>071-079>083-090>094-241000-
   SOUTHWEST IOWA

CITY           SKY/WX    TMP DP  RH WIND       PRES   REMARKS
ATLANTIC *     CLOUDY    45  39  81 N3        30.12S
AUDUBON *      CLOUDY    37  34  87 CALM      30.14S
CLARINDA *     CLOUDY    45  34  65 NE6       30.13S
COUNCIL BLFS * PTCLDY    46  41  81 NE7       30.12S
CRESTON *      CLOUDY    50  34  53 N9        30.12S
HARLAN  *      CLEAR     46  39  76 N6        30.16S
LAMONI         CLEAR     47  30  51 N7        30.09R
RED OAK *      CLOUDY    43  34  70 CALM      30.12S
SHENANDOAH *   CLOUDY    39  32  75 CALM      30.12S
$$

IAZ047>049-059>061-072>074-084-241000-
   CENTRAL IOWA

CITY           SKY/WX    TMP DP  RH WIND       PRES   REMARKS
AMES           CLEAR     45  37  73 CALM      30.11S
ANKENY *       CLEAR     41  34  75 CALM      30.13R
BOONE *        MOCLDY    48  41  76 N3        30.11S
CHARITON *     CLEAR     46  30  53 N8        30.09S
DES MOINES     CLEAR     48  34  58 NW6       30.12R
GRINNELL*      CLEAR     44  29  56 N3        30.11R
KNOXVILLE *    PTCLDY    43  32  65 N6        30.09R
MARSHALLTOWN   CLEAR     40  34  79 NW6       30.10S
NEWTON *       CLEAR     46  30  53 N8        30.10S
PELLA *        CLEAR     45  30  55 N3        30.10S
PERRY *        FAIR      43  37  78 NW5       30.11S
$$

IAZ004>006-015-016-023>025-035-036-241000-
   NORTH CENTRAL IOWA

CITY           SKY/WX    TMP DP  RH WIND       PRES   REMARKS
ALGONA *       PTCLDY    43  39  87 CALM      30.13F
CLARION *      MOCLDY    45  39  81 N6        30.13R
ESTHERVILLE    CLEAR     37  34  89 W5        30.13F WCI  33
FORT DODGE *   CLOUDY    46  40  79 N3        30.13S
MASON CITY     CLEAR     42  38  85 NW3       30.14R
FOREST CITY *  FAIR      41  41 100 CALM      30.13S
WEBSTER CITY * CLOUDY    45  43  93 N7        30.11R
IOWA FALLS *   MOCLDY    41  37  84 CALM      30.12S
$$

IAZ007>011-017>019-026>030-037>042-050>054-066-241000-
   NORTHEAST IOWA

CITY           SKY/WX    TMP DP  RH WIND       PRES   REMARKS
CEDAR RAPIDS   FAIR      46  30  53 N7        30.08R
CHARLES CITY * CLOUDY    43  39  87 N5        30.12S
DECORAH *      FAIR      43  34  70 CALM      30.10F
DUBUQUE        FAIR      44  31  60 NE5       30.09S
MONTICELLO *   FAIR      36  32  87 CALM      30.09S
OELWEIN *      FAIR      43  34  70 NE6       30.10F
WATERLOO       FAIR      42  36  79 CALM      30.11S
$$

IAZ064-065-067-068-078-241000-
   EAST CENTRAL IOWA

CITY           SKY/WX    TMP DP  RH WIND       PRES   REMARKS
DAVENPORT      FAIR      47  32  56 N7        30.09S
IOWA CITY      FAIR      48  28  46 NE6       30.09S
MT. PLEASANT * CLEAR     45  34  65 NE7       30.07S
MUSCATINE *    FAIR      45  34  65 N3        30.08S
QUAD CITIES    FAIR      52  38  58 CALM      30.06S
$$

IAZ062-063-075>077-085>089-095>099-241000-
   SOUTHEAST IOWA

CITY           SKY/WX    TMP DP  RH WIND       PRES   REMARKS
BURLINGTON     PTCLDY    50  43  77 N7        30.05R
FAIRFIELD *    CLEAR     45  30  57 N9        30.07R
FORT MADISON * CLEAR     46  45  93 N3        30.06R
KEOKUK *       PTCLDY    52  48  87 N6        30.05R
OSKALOOSA *    FAIR      42  28  55 N8        30.09R
CENTERVILLE *    N/A     45  28  53 CALM      30.09R
OTTUMWA        CLEAR     40  28  62 N7        30.08R
WASHINGTON *   CLEAR     45  32  61 NE8       30.08S
$$

ABBREVIATIONS USED IN REMARKS
   TC - TEMPERATURES IN CELSIUS
  WCI - WIND CHILL INDEX
   HX - HEAT INDEX
  VSB - VISIBILITY
$$




USA.gov is the U.S. government's official web portal to all federal, state and local government web resources and services.